星链-4168 (STARLINK-4168 )

导读 | 星芒AI

STARLINK-4168 是 SpaceX Starlink 项目中的一颗低轨通信卫星,属于第 41 批发射的 Starlink 卫星群。该卫星运行在约 550 公里的近地轨道,旨在为全球提供高速互联网服务。它采用先进的相控阵天线和激光通信技术,以提升网络连接速度和稳定性。Starlink 项目致力于构建覆盖全球的卫星互联网系统,尤其服务于偏远和网络基础设施薄弱的地区。STARLINK-4168 的部署有助于增强 Starlink 网络的冗余性和覆盖能力。

基本信息
目录编号:
52845
目录名称:
STARLINK-4168
国际标识:
2022-062R
轨道中心:
EARTH
卫星名称:
星链-4168
卫星全名:
星链-4168 (STARLINK-4168 )
卫星状态:
在轨 (已飞行1283 天)
发射日期:
2022-06-17 UTC
国别 :
美国 (US)
星等 :
--
轨道信息
数据来源 国际轨道数据 AOE轨道数据
星历时间 2025-12-20T15:15:37+0800
22小时前
查看轨道信息
2025-12-18T05:00:00+0800
3天前
查看轨道信息
半长轴 6917.889km 6917.802km
偏心率 0.0001297 0.0001422
轨道倾角 53.219° 53.216°
近地点辐角 88.128° 81.895°
升交点赤经 30.571° 41.470°
平近点角 271.986° 45.276°
近地点 538.854km 538.683km
远地点 540.65km 540.651km
周期 95.438分钟 95.436分钟
每日圈数 15.088373 15.088659
详细信息
固有亮度:
5
最大亮度:
2.5
卫星平台:
Starlink v1.5
覆盖范围:
全球
运营商:
太空探索技术公司
运营商所在国:
美国
制造商(研发单位):
太空探索技术公司
制造商所在国:
美国
使用方式:
暂无
卫星简介
星链(Starlink)计划是由太空探索技术公司(SpaceX)提出的一个巨型低轨卫星互联网星座项目,计划在2019年至2024年间在太空搭建由约1.2万颗卫星组成的“星链”网络,其中1584颗将部署在地球上空550千米处的近地轨道,并从2020年开始工作。该卫星仍在工作。
2D轨道图
3D轨道图
轨道高度分析图
轨道倾角分析图
轨道综合分析图
查看轨道综合分析图